Regional Weather Roundup
Issued by NWS Charleston, SC

Current Version | Previous Version | Text Only | Print | Product List | Glossary Off
Versions: 1 2 3 4 5 6 7 8 9 10 11 12 13 14 15 16 17 18 19 20 21 22 23 24 25 26 27 28 29 30 31 32 33 34 35 36 37 38 39 40 41 42 43 44 45 46 47 48 49 50

774
ASUS42 KCHS 261328
RWRCHS

REGIONAL WEATHER ROUNDUP
NATIONAL WEATHER SERVICE CHARLESTON SC
900 AM EDT MON SEP 26 2016

NOTE: "FAIR" INDICATES FEW OR NO CLOUDS BELOW 12,000 FEET WITH NO
SIGNIFICANT WEATHER AND/OR OBSTRUCTIONS TO VISIBILITY.

NOT ALL STATIONS ARE QUALITY CONTROLLED. USE DATA WITH CAUTION...
ESPECIALLY DEWPOINT OBSERVATIONS.

SCZ027-030-031-034>040-042>050-261400-
...SOUTHEAST SOUTH CAROLINA...

CITY           SKY/WX    TMP DP  RH WIND       PRES   REMARKS
N CHARLESTON   CLOUDY    77  72  84 NE7       30.06F
WATERFRONT PRK   N/A     76  74  93 N5        30.05R
MOUNT PLEASANT RAIN      73  73 100 CALM      30.08R
JOHNS ISLAND   FAIR      81  73  78 NE6       30.07R
PINOPOLIS        N/A     73  72  94 NE6       30.01R
MONCKS CORNER  FAIR      73  72  94 CALM      30.08S
SUMMERVILLE    FAIR      73  73 100 CALM      30.09S
BEAUFORT MCAS  CLOUDY    76  73  91 NE5       30.05S
BEAUFORT ARPT  FAIR      77  73  88 NE5       30.05R FOG
HILTON HEAD IS PTSUNNY   79  75  89 E5        30.05S
WALTERBORO     CLOUDY    77 N/A N/A E8        30.08S
ALLENDALE      FAIR      73  72  94 CALM      30.08R

...SOUTHERN MIDLANDS AND PEE DEE...

CITY           SKY/WX    TMP DP  RH WIND       PRES   REMARKS
GEORGETOWN     FAIR      75  72  88 NE6       30.09S
KINGSTREE      FAIR      72  66  83 NE5       30.10S
ORANGEBURG     CLOUDY    72  71  97 NE7       30.09F
BARNWELL       NOT AVBL
AIKEN          CLOUDY    72  70  94 NE3       30.14S FOG
MANNING        FAIR      72  68  88 NE5       30.10S
COLUMBIA       PTSUNNY   76  71  85 E6        30.09F
SUMTER         MOSUNNY   72  68  87 E6        30.08S
FLORENCE       PTSUNNY   70  65  84 E7        30.12R
MYRTLE BEACH   SUNNY     72  61  68 NE6       30.12
N MYRTLE BEACH MOSUNNY   73  66  78 NE6       30.10R

$$

GAZ063-065-086>088-099>101-113>116-118-119-134>141-150-261400-
...SOUTHEAST GEORGIA...

CITY           SKY/WX    TMP DP  RH WIND       PRES   REMARKS
SAVANNAH ARPT  CLOUDY    76  73  91 NE6       30.05R
HUNTER AAF     CLOUDY    76  76 100 NE5       30.03R
FORT STEWART   CLOUDY    75  73  94 N1        30.03S
STATESBORO     CLOUDY    76  74  95 CALM      30.07R
SYLVANIA       NOT AVBL
CLAXTON        FAIR      74  74 100 CALM      30.07R FOG

...CSRA...CENTRAL AND FAR SOUTHEAST GEORGIA...

CITY           SKY/WX    TMP DP  RH WIND       PRES   REMARKS
THOMSON        CLOUDY    75  74  98 CALM      30.16R
AUGUSTA-BUSH   PTSUNNY   76  72  87 NE5       30.09R
AUGUSTA-DANIEL PTSUNNY   77  69  76 E7        30.11S
SWAINSBORO     FOG       72  72 100 CALM      30.09R VSB 3/4
VIDALIA        FOG       73  73 100 CALM      30.07S VSB 3/4
EASTMAN        PTSUNNY   75  75 100 E3        30.10S
HAZLEHURST     FOG       73  73 100 SE3       30.06S VSB 1/4
ALMA           FOG       74  73  97 CALM      30.05R VSB 1
WAYCROSS       CLOUDY    77  77 100 NE5       30.05S FOG
JESUP          FAIR      77  77 100 NE3       30.05R FOG
BAXLEY         CLOUDY    73  73 100 NE7       30.06R FOG
BRUNSWICK      CLOUDY    77  73  88 NE6       30.04R
SAINT SIMONS   LGT RAIN  75  71  87 E12       30.02R FOG

$$

SCZ027-028-034-036>038-045-046-048>050-GAZ119-141-261400-
...LAKE AND SUPPLEMENTAL COASTAL OBSERVATIONS...

STATION/POSITION TIME  TEMP    WIND        PRES    WAVE   SWELL
                       AIR SEA DIR/SP/G            HT/PER HT/PER/DIR
                 (UTC) (F)     (DEG/KT/KT) (MB)    (FT/S) (FT/S/D)
WINYAH BAY       1230   77      50/  9     1018.0R
LAKE MURRAY      1250   74      90/  4/  7 1019.0S
ACE BASIN NERRS  1245   75      10/  1     1018.0S
FORT PULASKI     1300   80 81   90/ 11/ 13 1017.9
SAPELO ISLAND    1300   74      80/  6     1017.0

$$

ANZ835-935-AMZ111-154-330-350-352-354-370-450-454-472-261400-
...C-MAN AND BUOY OBSERVATIONS...

STATION/POSITION TIME  TEMP    WIND        PRES    WAVE   SWELL
                       AIR SEA DIR/SP/G            HT/PER HT/PER/DIR
                 (UTC) (F)     (DEG/KT/KT) (MB)    (FT/S) (FT/S/D)
BUOY 41004       1250   80 82   60/ 12/ 14 1016.9F   4/ 7   3/ 90/ 7
BUOY 41008       1250   78 82   80/ 16/ 19 1016.2F   4/ 5   2/120/10
FOLLY BEACH CMAN 1300   80      80/ 11/ 14 1017.9F
CAPERS NEARSHORE 1208   80 81  100/ 12/ 17 1017.6R
FRIPP NEARSHORE  1308   80 81   90/ 14/ 19 1017.3S


STATION/POSITION TIME  TEMP    WIND        PRES    WAVE   SWELL
                       AIR SEA DIR/SP/G            HT/PER HT/PER/DIR
                 (UTC) (F)     (DEG/KT/KT) (MB)    (FT/S) (FT/S/D)
5E ST. MARYS GA  1301      82                N/A     4/10   2/ 90/11
FRYING PAN BUOY  1310   80 82   60/ 14/ 17 1018.4
BUOY 41025       1250   75 84   40/ 14/ 17 1019.1F   3/10   2/ 20/10
CAPE LOOKOUT NC  1300   74      40/ 16/ 17 1019.5R
BUOY 41002       1250   80 84   50/ 14/ 16 1017.0F   4/ 8   3/ 40/ 8
BUOY 41010       NOT AVBL
ST AUGUSTINE FL  1300   78 83  290/  4/  5 1016.9R


$$




USA.gov is the U.S. government's official web portal to all federal, state and local government web resources and services.